Wind_Speed
38 35 33 30 26 29 28 29 27 25 22 20 18 16 15 15 15 15 15 15 15 15
38 36 33 28 24 28 26 27 25 22 21 20 18 17 16 15 14 14 14 13 12 12
35 33 30 25 27 25 28 27 26 24 22 19 18 16 16 15 15 14 13 13 12 11
35 29 28 26 27 29 26 25 25 24 22 20 18 17 16 15 14 14 13 14 14 15
31 34 30 27 29 28 26 26 24 23 22 21 19 18 16 14 15 13 13 14 15 15
35 35 31 30 28 26 24 24 24 23 22 21 19 18 16 15 15 16 16 14 14 14
36 32 32 32 29 27 26 26 24 22 20 19 19 18 17 17 16 16 17 16 16 15
32 31 33 31 31 29 26 24 21 21 22 21 20 19 19 18 17 16 17 17 18 17
33 30 31 32 32 30 28 25 24 23 23 22 21 20 18 16 17 18 18 19 19 18
30 29 30 32 33 31 27 25 25 25 24 21 20 17 17 17 18 19 21 20 18 18
31 32 33 33 33 31 28 25 24 22 20 20 19 18 18 18 19 22 22 19 17 15
37 36 35 37 36 34 29 29 26 24 23 24 23 20 21 24 25 23 20 19 18 16
36 37 37 36 35 33 29 26 25 28 25 21 21 22 25 26 25 24 23 21 18 16
40 40 35 36 34 33 30 29 28 26 23 22 24 24 26 26 24 22 21 19 17 15
Wind_Direction
212 212 211 203 200 204 203 197 194 190 189 190 192 192 192 191 195 199 204 207 209 210
209 206 204 197 198 201 198 197 191 188 190 188 189 190 189 190 189 189 190 189 188 185
202 202 197 188 188 192 199 195 190 188 189 188 189 190 188 188 184 182 177 174 172 175
193 192 193 184 192 191 197 195 191 185 187 188 188 189 189 186 179 176 176 173 168 165
200 187 195 196 197 191 191 193 191 185 187 189 189 190 188 184 179 178 182 180 175 170
197 195 195 194 197 193 193 197 192 187 189 191 189 190 184 185 185 181 177 179 178 174
202 200 200 195 198 199 194 197 193 187 189 190 192 191 190 191 186 184 179 182 176 174
207 201 194 194 197 195 192 193 195 190 188 190 194 197 194 191 186 188 186 181 175 168
199 194 193 195 193 193 191 192 189 189 190 193 197 197 197 196 189 186 184 182 175 168
200 199 198 194 193 192 191 193 191 194 190 194 198 200 198 194 189 182 181 178 175 171
199 201 195 195 194 192 193 199 198 197 196 198 197 195 196 185 183 180 176 177 177 177
202 198 196 195 193 191 193 193 196 204 199 197 196 193 203 186 180 181 182 181 182 179
203 201 193 194 193 194 195 199 208 200 195 206 186 193 191 187 189 185 186 185 186 184
202 199 198 197 195 196 198 202 195 195 200 193 193 195 191 190 193 192 187 187 185 187
Height
1432 1440 1446 1447 1453 1461 1468 1474 1480 1483 1487 1491 1494 1496 1498 1499 1501 1503 1505 1507 1509 1510
1425 1432 1439 1444 1447 1459 1464 1472 1476 1480 1485 1488 1492 1494 1495 1497 1499 1500 1503 1505 1506 1507
1420 1431 1436 1439 1446 1450 1460 1466 1469 1474 1481 1485 1490 1493 1494 1496 1496 1497 1498 1501 1504 1509
1414 1425 1434 1435 1443 1448 1456 1463 1467 1469 1476 1482 1485 1490 1493 1495 1495 1497 1498 1500 1501 1503
1413 1414 1424 1431 1440 1447 1452 1461 1464 1466 1473 1479 1482 1487 1491 1492 1494 1495 1498 1500 1503 1504
1407 1411 1419 1429 1438 1441 1450 1458 1461 1463 1469 1475 1480 1485 1487 1490 1492 1493 1495 1500 1503 1505
1404 1411 1418 1427 1435 1442 1447 1455 1459 1460 1466 1473 1478 1482 1485 1489 1490 1492 1494 1500 1499 1504
1403 1410 1418 1425 1433 1440 1446 1452 1457 1458 1463 1470 1476 1481 1483 1485 1487 1492 1495 1498 1499 1501
1400 1407 1415 1423 1430 1438 1443 1449 1453 1457 1463 1467 1472 1477 1481 1483 1484 1488 1492 1499 1500 1499
1398 1404 1411 1420 1428 1434 1438 1447 1451 1457 1460 1463 1470 1474 1478 1483 1483 1485 1493 1496 1499 1500
1396 1403 1410 1417 1424 1429 1437 1445 1450 1455 1458 1462 1468 1471 1476 1478 1481 1486 1491 1495 1497 1500
1393 1399 1406 1414 1421 1429 1434 1441 1447 1452 1457 1462 1465 1469 1475 1474 1480 1485 1490 1493 1496 1498
1387 1397 1402 1410 1417 1425 1432 1438 1444 1452 1456 1459 1459 1466 1474 1474 1479 1479 1484 1490 1494 1496
1385 1395 1401 1408 1414 1423 1431 1439 1445 1449 1452 1456 1459 1463 1468 1472 1477 1481 1484 1487 1491 1495